TRA6366 GCLP-EHEH

Flight info

Callsign TRA6366
Flight time N/A
Altitude 34000
Route VASTO UN858 AKUDA DCT XAPAS DCT ELVAR DCT TOSDI N745 ZMR/N0445F360 N873 DELOG DCT YURZI UL14 TEPRA UN867 MOKOR UN873 BAZOS DCT CMB DCT ADUTO N873 HELEN
Aircraft B738/M-SDE2E3FGHIRWXY/LB1

Departure

Time N/A
Airport Gran Canaria Airport (GCLP)

Arrival

Time 2026-05-01 12:21
Airport Eindhoven Airport (EHEH)
Time Latitude Longitude Altitude Speed Heading
2026-05-01 09:48 36.90534 -8.38022 34158 ft 467 kts 18°
2026-05-01 09:49 36.96370 -8.34427 34157 ft 467 kts 19°
2026-05-01 09:49 37.02189 -8.30836 34156 ft 466 kts 19°
2026-05-01 09:50 37.07996 -8.27246 34162 ft 468 kts 19°
2026-05-01 09:50 37.13881 -8.23604 34169 ft 476 kts 19°
2026-05-01 09:51 37.19846 -8.19904 34155 ft 479 kts 19°
2026-05-01 09:51 37.25807 -8.16198 34160 ft 481 kts 20°
2026-05-01 09:52 37.31815 -8.12454 34160 ft 482 kts 20°
2026-05-01 09:52 37.37822 -8.08706 34161 ft 481 kts 20°
2026-05-01 09:53 37.43807 -8.04968 34162 ft 479 kts 20°
2026-05-01 09:53 37.49764 -8.01236 34160 ft 477 kts 20°
2026-05-01 09:54 37.55690 -7.97520 34167 ft 474 kts 20°
2026-05-01 09:54 37.61594 -7.94013 34170 ft 467 kts 14°
2026-05-01 09:55 37.67730 -7.91290 34169 ft 463 kts 12°
2026-05-01 09:55 37.73733 -7.88773 34175 ft 462 kts 12°
2026-05-01 09:56 37.79818 -7.86164 34183 ft 462 kts 12°
2026-05-01 09:56 37.85942 -7.83480 34186 ft 463 kts 13°
2026-05-01 09:57 37.91994 -7.80806 34187 ft 464 kts 13°
2026-05-01 09:57 37.98099 -7.78105 34186 ft 466 kts 13°
2026-05-01 09:58 38.04227 -7.75391 34189 ft 467 kts 13°
2026-05-01 09:58 38.10371 -7.72665 34184 ft 468 kts 13°
2026-05-01 09:59 38.16539 -7.69922 34185 ft 469 kts 13°
2026-05-01 09:59 38.22712 -7.67172 34183 ft 470 kts 13°
2026-05-01 10:00 38.28842 -7.64437 34174 ft 470 kts 13°
2026-05-01 10:00 38.35014 -7.61677 34175 ft 470 kts 14°
2026-05-01 10:01 38.41181 -7.58917 34176 ft 470 kts 14°
2026-05-01 10:01 38.46295 -7.56623 34174 ft 469 kts 14°
2026-05-01 10:02 38.52449 -7.53858 34167 ft 469 kts 14°
2026-05-01 10:02 38.58604 -7.51089 34166 ft 468 kts 15°
2026-05-01 10:03 38.64452 -7.48452 34166 ft 468 kts 15°
2026-05-01 10:03 38.69152 -7.46329 34167 ft 468 kts 15°
2026-05-01 10:04 38.75297 -7.43549 34165 ft 468 kts 15°
2026-05-01 10:04 38.81438 -7.40766 34159 ft 468 kts 15°
2026-05-01 10:05 38.87535 -7.37999 34164 ft 468 kts 15°
2026-05-01 10:05 38.93676 -7.35206 34169 ft 468 kts 16°
2026-05-01 10:06 38.99824 -7.32404 34163 ft 468 kts 16°
2026-05-01 10:06 39.05960 -7.29603 34167 ft 468 kts 16°
2026-05-01 10:07 39.12110 -7.26790 34160 ft 468 kts 16°
2026-05-01 10:07 39.18255 -7.23974 34160 ft 469 kts 17°
2026-05-01 10:08 39.27442 -7.19575 34168 ft 470 kts 19°
2026-05-01 10:09 39.33351 -7.16489 34166 ft 470 kts 19°
2026-05-01 10:09 39.39429 -7.13310 34168 ft 471 kts 19°
2026-05-01 10:10 39.45512 -7.10156 34168 ft 471 kts 19°
2026-05-01 10:10 39.54649 -7.05435 34165 ft 470 kts 19°
2026-05-01 10:11 39.60696 -7.02300 34164 ft 470 kts 19°
2026-05-01 10:11 39.66776 -6.99144 34170 ft 470 kts 19°
2026-05-01 10:12 39.71828 -6.96516 34161 ft 470 kts 19°
2026-05-01 10:13 39.81841 -6.91296 34164 ft 470 kts 20°
2026-05-01 10:13 39.87908 -6.88126 34165 ft 469 kts 20°
2026-05-01 10:14 39.96873 -6.83427 34172 ft 469 kts 20°
2026-05-01 10:14 40.02884 -6.80268 34161 ft 468 kts 20°
2026-05-01 10:15 40.08902 -6.77103 34172 ft 468 kts 20°
2026-05-01 10:15 40.14943 -6.73918 34176 ft 468 kts 20°
2026-05-01 10:16 40.20971 -6.70735 34179 ft 467 kts 20°
2026-05-01 10:17 40.30021 -6.65945 34175 ft 467 kts 20°
2026-05-01 10:17 40.39066 -6.61142 34176 ft 468 kts 20°
2026-05-01 10:18 40.48114 -6.56322 34178 ft 468 kts 20°
2026-05-01 10:19 40.54149 -6.53100 34187 ft 468 kts 20°
2026-05-01 10:19 40.60142 -6.49896 34179 ft 468 kts 20°
2026-05-01 10:20 40.69051 -6.45118 34186 ft 467 kts 20°
2026-05-01 10:20 40.75077 -6.41879 34186 ft 467 kts 20°
2026-05-01 10:21 40.84089 -6.37022 34183 ft 468 kts 20°
2026-05-01 10:22 40.93126 -6.32138 34186 ft 468 kts 20°
2026-05-01 10:23 41.01710 -6.26029 34179 ft 471 kts 40°
2026-05-01 10:23 41.08933 -6.17275 34179 ft 472 kts 41°
2026-05-01 10:24 41.18643 -6.05539 34184 ft 472 kts 41°
2026-05-01 10:25 41.28399 -5.93814 34191 ft 473 kts 40°
2026-05-01 10:26 41.33272 -5.87934 34183 ft 472 kts 40°
2026-05-01 10:27 41.42983 -5.76180 34182 ft 471 kts 41°
2026-05-01 10:28 41.49419 -5.68362 34183 ft 469 kts 41°
2026-05-01 10:28 41.55462 -5.62461 34184 ft 464 kts 23°
2026-05-01 10:28 41.58419 -5.60740 34198 ft 462 kts 20°
2026-05-01 10:29 41.66390 -5.56386 34183 ft 463 kts 20°
2026-05-01 10:30 41.78241 -5.49761 34186 ft 463 kts 21°
2026-05-01 10:31 41.89901 -5.43135 34186 ft 465 kts 21°
2026-05-01 10:32 41.98092 -5.38465 34187 ft 466 kts 21°
2026-05-01 10:33 42.10002 -5.31654 34185 ft 467 kts 21°
2026-05-01 10:34 42.18970 -5.26509 34184 ft 467 kts 21°
2026-05-01 10:34 42.24961 -5.23062 34187 ft 468 kts 21°
2026-05-01 10:35 42.33951 -5.17875 34188 ft 468 kts 21°
2026-05-01 10:35 42.39943 -5.14409 34182 ft 468 kts 21°
2026-05-01 10:36 42.48925 -5.09199 34185 ft 468 kts 21°
2026-05-01 10:37 42.54906 -5.05722 34183 ft 468 kts 21°
2026-05-01 10:37 42.63848 -5.00510 34185 ft 468 kts 21°
2026-05-01 10:38 42.69827 -4.97017 34179 ft 468 kts 21°
2026-05-01 10:38 42.75820 -4.93508 34169 ft 468 kts 21°
2026-05-01 10:39 42.81804 -4.89997 34175 ft 468 kts 21°
2026-05-01 10:39 42.87779 -4.86483 34173 ft 468 kts 21°
2026-05-01 10:40 42.93759 -4.82958 34172 ft 468 kts 22°
2026-05-01 10:40 42.99728 -4.79434 34177 ft 468 kts 22°
2026-05-01 10:41 43.05700 -4.75898 34175 ft 467 kts 22°
2026-05-01 10:42 43.14652 -4.70583 34165 ft 467 kts 22°
2026-05-01 10:42 43.20584 -4.67054 34172 ft 467 kts 22°
2026-05-01 10:43 43.26501 -4.63527 34164 ft 467 kts 22°
2026-05-01 10:43 43.32466 -4.59962 34173 ft 466 kts 22°
2026-05-01 10:44 43.38416 -4.56400 34170 ft 466 kts 22°
2026-05-01 10:44 43.43961 -4.53070 34163 ft 466 kts 22°
2026-05-01 10:45 43.49497 -4.49742 34163 ft 465 kts 22°
2026-05-01 10:45 43.55436 -4.46169 34166 ft 465 kts 22°
2026-05-01 10:46 43.61328 -4.42617 34166 ft 465 kts 22°
2026-05-01 10:46 43.67251 -4.39034 34156 ft 465 kts 22°
2026-05-01 10:47 43.73171 -4.35444 34155 ft 464 kts 22°
2026-05-01 10:47 43.79093 -4.31847 34158 ft 464 kts 22°
2026-05-01 10:48 43.84874 -4.28328 34156 ft 464 kts 22°
2026-05-01 10:48 43.90708 -4.24769 34156 ft 464 kts 22°
2026-05-01 10:49 43.96596 -4.21169 34160 ft 464 kts 22°
2026-05-01 10:49 44.02538 -4.17530 34155 ft 464 kts 23°
2026-05-01 10:50 44.07688 -4.14369 34158 ft 463 kts 23°
2026-05-01 10:50 44.13496 -4.10795 34158 ft 463 kts 23°
2026-05-01 10:51 44.19320 -4.07205 34165 ft 463 kts 23°
2026-05-01 10:51 44.25210 -4.03566 34168 ft 463 kts 23°
2026-05-01 10:52 44.31101 -3.99918 34164 ft 464 kts 23°
2026-05-01 10:52 44.36870 -3.95874 34172 ft 464 kts 28°
2026-05-01 10:53 44.42440 -3.91402 34166 ft 465 kts 29°
2026-05-01 10:53 44.48049 -3.86854 34166 ft 465 kts 29°
2026-05-01 10:54 44.53664 -3.82350 34165 ft 466 kts 29°
2026-05-01 10:54 44.58770 -3.78277 34168 ft 466 kts 29°
2026-05-01 10:55 44.64410 -3.73776 34166 ft 467 kts 29°
2026-05-01 10:55 44.70009 -3.69300 34167 ft 467 kts 29°
2026-05-01 10:56 44.75695 -3.64741 34166 ft 467 kts 29°
2026-05-01 10:56 44.81258 -3.60267 34174 ft 467 kts 29°
2026-05-01 10:57 44.86904 -3.55720 34174 ft 468 kts 29°
2026-05-01 10:57 44.92559 -3.51157 34175 ft 468 kts 29°
2026-05-01 10:58 44.98207 -3.46586 34178 ft 468 kts 29°
2026-05-01 10:58 45.03860 -3.42002 34174 ft 468 kts 29°
2026-05-01 10:59 45.09509 -3.37411 34178 ft 468 kts 29°
2026-05-01 10:59 45.15154 -3.32811 34179 ft 468 kts 29°
2026-05-01 11:00 45.20768 -3.28226 34187 ft 468 kts 29°
2026-05-01 11:00 45.26399 -3.23617 34184 ft 468 kts 29°
2026-05-01 11:01 45.32055 -3.18974 34186 ft 469 kts 29°
2026-05-01 11:01 45.37706 -3.14327 34184 ft 469 kts 29°
2026-05-01 11:02 45.43352 -3.09673 34187 ft 469 kts 29°
2026-05-01 11:02 45.48991 -3.05014 34194 ft 468 kts 29°
2026-05-01 11:03 45.54633 -3.00341 34195 ft 469 kts 29°
2026-05-01 11:03 45.60229 -2.95697 34198 ft 468 kts 29°
2026-05-01 11:04 45.65861 -2.91010 34193 ft 468 kts 29°
2026-05-01 11:04 45.71491 -2.86314 34193 ft 467 kts 29°
2026-05-01 11:05 45.77101 -2.81623 34193 ft 467 kts 29°
2026-05-01 11:05 45.82709 -2.76924 34194 ft 466 kts 29°
2026-05-01 11:06 45.88300 -2.72227 34192 ft 466 kts 29°
2026-05-01 11:06 45.93889 -2.67523 34202 ft 465 kts 29°
2026-05-01 11:07 46.02260 -2.60453 34199 ft 464 kts 29°
2026-05-01 11:07 46.07792 -2.55766 34201 ft 464 kts 29°
2026-05-01 11:08 46.13350 -2.51049 34207 ft 463 kts 29°
2026-05-01 11:08 46.19226 -2.47406 34209 ft 459 kts 12°
2026-05-01 11:09 46.22367 -2.46605 34217 ft 456 kts
2026-05-01 11:09 46.28692 -2.45703 34210 ft 456 kts
2026-05-01 11:10 46.38136 -2.44265 34213 ft 457 kts
2026-05-01 11:10 46.44461 -2.43235 34207 ft 457 kts
2026-05-01 11:11 46.50694 -2.41319 34217 ft 460 kts 19°
2026-05-01 11:11 46.56385 -2.37037 34223 ft 462 kts 29°
2026-05-01 11:12 46.61934 -2.32302 34201 ft 463 kts 29°
2026-05-01 11:12 46.67511 -2.27607 34204 ft 463 kts 28°
2026-05-01 11:13 46.73078 -2.22978 34217 ft 463 kts 28°
2026-05-01 11:13 46.78680 -2.18323 34210 ft 463 kts 28°
2026-05-01 11:14 46.84279 -2.13653 34215 ft 463 kts 28°
2026-05-01 11:14 46.89869 -2.08995 34208 ft 462 kts 27°
2026-05-01 11:15 46.95633 -2.04901 34217 ft 460 kts 24°
2026-05-01 11:15 47.01372 -2.00759 34201 ft 460 kts 32°
2026-05-01 11:16 47.06488 -1.95156 34221 ft 459 kts 37°
2026-05-01 11:16 47.10680 -1.90378 34210 ft 458 kts 36°
2026-05-01 11:17 47.15751 -1.84736 34203 ft 457 kts 36°
2026-05-01 11:17 47.20835 -1.79135 34218 ft 456 kts 36°
2026-05-01 11:18 47.25919 -1.73531 34222 ft 455 kts 36°
2026-05-01 11:18 47.30970 -1.67942 34218 ft 454 kts 36°
2026-05-01 11:19 47.35797 -1.61956 34220 ft 453 kts 48°
2026-05-01 11:19 47.39642 -1.54754 34217 ft 453 kts 52°
2026-05-01 11:20 47.43434 -1.47406 34225 ft 452 kts 52°
2026-05-01 11:20 47.47278 -1.40044 34211 ft 452 kts 51°
2026-05-01 11:21 47.51137 -1.32702 34217 ft 453 kts 51°
2026-05-01 11:21 47.55012 -1.25326 34209 ft 453 kts 51°
2026-05-01 11:22 47.58884 -1.17933 34208 ft 454 kts 51°
2026-05-01 11:22 47.62753 -1.10525 34214 ft 455 kts 51°
2026-05-01 11:23 47.66603 -1.03128 34210 ft 456 kts 52°
2026-05-01 11:23 47.70482 -0.95656 34205 ft 456 kts 51°
2026-05-01 11:24 47.74360 -0.88171 34215 ft 457 kts 52°
2026-05-01 11:25 47.80134 -0.77002 34217 ft 457 kts 52°
2026-05-01 11:25 47.85932 -0.65739 34216 ft 458 kts 52°
2026-05-01 11:26 47.91656 -0.54576 34205 ft 457 kts 52°
2026-05-01 11:27 47.95511 -0.47029 34209 ft 457 kts 52°
2026-05-01 11:27 47.99263 -0.39662 34224 ft 456 kts 52°
2026-05-01 11:28 48.03097 -0.32116 34223 ft 456 kts 52°
2026-05-01 11:28 48.06931 -0.24551 34213 ft 456 kts 53°
2026-05-01 11:29 48.12662 -0.13481 34229 ft 455 kts 52°
2026-05-01 11:30 48.18479 -0.02269 34234 ft 454 kts 53°
2026-05-01 11:30 48.22351 0.05241 34228 ft 454 kts 54°
2026-05-01 11:31 48.26208 0.12749 34238 ft 453 kts 56°
2026-05-01 11:31 48.29912 0.19981 34225 ft 452 kts 56°
2026-05-01 11:32 48.33725 0.27442 34228 ft 449 kts 56°
2026-05-01 11:32 48.37521 0.34892 34238 ft 447 kts 56°
2026-05-01 11:33 48.41308 0.42308 34237 ft 446 kts 56°
2026-05-01 11:33 48.45115 0.49685 34237 ft 445 kts 56°
2026-05-01 11:34 48.48911 0.57069 34233 ft 445 kts 56°
2026-05-01 11:34 48.52744 0.64085 34223 ft 450 kts 47°
2026-05-01 11:35 48.57522 0.69744 34232 ft 455 kts 39°
2026-05-01 11:35 48.62635 0.75387 34226 ft 456 kts 40°
2026-05-01 11:36 48.67730 0.81148 34228 ft 458 kts 40°
2026-05-01 11:36 48.72825 0.86977 34231 ft 459 kts 40°
2026-05-01 11:37 48.77863 0.92755 34236 ft 460 kts 40°
2026-05-01 11:37 48.82976 0.98646 34243 ft 462 kts 40°
2026-05-01 11:38 48.88095 1.04561 34239 ft 462 kts 40°
2026-05-01 11:38 48.92704 1.09898 34238 ft 463 kts 40°
2026-05-01 11:39 48.97487 1.15450 34243 ft 463 kts 41°
2026-05-01 11:39 49.02617 1.21418 34239 ft 463 kts 41°
2026-05-01 11:40 49.07427 1.27897 34247 ft 459 kts 47°
2026-05-01 11:40 49.11994 1.34697 34237 ft 459 kts 47°
2026-05-01 11:41 49.16596 1.41468 34238 ft 459 kts 47°
2026-05-01 11:41 49.21188 1.48143 34235 ft 458 kts 47°
2026-05-01 11:42 49.25811 1.54873 34230 ft 458 kts 47°
2026-05-01 11:42 49.30429 1.61602 34233 ft 458 kts 46°
2026-05-01 11:43 49.35044 1.68329 34237 ft 458 kts 46°
2026-05-01 11:43 49.39657 1.75080 34222 ft 458 kts 46°
2026-05-01 11:44 49.46576 1.85240 34233 ft 459 kts 46°
2026-05-01 11:44 49.51189 1.92038 34229 ft 459 kts 47°
2026-05-01 11:45 49.55595 1.99138 34242 ft 458 kts 51°
2026-05-01 11:45 49.59853 2.06446 34240 ft 459 kts 51°
2026-05-01 11:46 49.64124 2.13772 34240 ft 459 kts 51°
2026-05-01 11:46 49.68399 2.21054 34244 ft 460 kts 50°
2026-05-01 11:47 49.72700 2.28372 34242 ft 460 kts 50°
2026-05-01 11:47 49.77000 2.35708 34236 ft 460 kts 50°
2026-05-01 11:48 49.81300 2.43065 34233 ft 460 kts 51°
2026-05-01 11:48 49.85586 2.50421 34238 ft 460 kts 50°
2026-05-01 11:49 49.89864 2.57786 34240 ft 459 kts 51°
2026-05-01 11:49 49.94135 2.65155 34247 ft 459 kts 51°
2026-05-01 11:50 49.98396 2.72535 34241 ft 458 kts 51°
2026-05-01 11:50 50.02640 2.79903 34241 ft 457 kts 50°
2026-05-01 11:51 50.06852 2.87236 34240 ft 457 kts 50°
2026-05-01 11:51 50.11069 2.94600 34235 ft 456 kts 50°
2026-05-01 11:52 50.15278 3.01972 34239 ft 454 kts 50°
2026-05-01 11:52 50.19480 3.09349 34239 ft 454 kts 50°
2026-05-01 11:53 50.24139 3.16002 34250 ft 456 kts 34°
2026-05-01 11:53 50.29801 3.20496 34243 ft 457 kts 25°
2026-05-01 11:54 50.35574 3.24558 34237 ft 457 kts 25°
2026-05-01 11:54 50.41348 3.28732 34237 ft 455 kts 26°
2026-05-01 11:55 50.44174 3.30805 34220 ft 442 kts 26°
2026-05-01 11:55 50.46931 3.32832 34004 ft 432 kts 26°
2026-05-01 11:55 50.49624 3.34814 33695 ft 425 kts 26°
2026-05-01 11:55 50.52301 3.36778 33296 ft 422 kts 26°
2026-05-01 11:56 50.54974 3.38654 32920 ft 419 kts 25°
2026-05-01 11:56 50.57630 3.40466 32530 ft 416 kts 24°
2026-05-01 11:56 50.60282 3.42263 32141 ft 413 kts 25°
2026-05-01 11:56 50.62912 3.44051 31750 ft 410 kts 25°
2026-05-01 11:57 50.65518 3.45831 31362 ft 407 kts 25°
2026-05-01 11:57 50.67236 3.47009 31106 ft 405 kts 25°
2026-05-01 11:57 50.70673 3.49377 30593 ft 401 kts 25°
2026-05-01 11:57 50.73225 3.51140 30221 ft 399 kts 25°
2026-05-01 11:58 50.75755 3.52891 29837 ft 396 kts 25°
2026-05-01 11:58 50.78234 3.54610 29455 ft 393 kts 25°
2026-05-01 11:58 50.83122 3.58005 28681 ft 388 kts 25°
2026-05-01 11:59 50.85667 3.59775 28289 ft 385 kts 25°
2026-05-01 11:59 50.88106 3.61471 27898 ft 383 kts 25°
2026-05-01 11:59 50.90539 3.63166 27512 ft 380 kts 25°
2026-05-01 12:00 50.95342 3.66578 26740 ft 376 kts 26°
2026-05-01 12:00 50.97718 3.68294 26361 ft 374 kts 26°
2026-05-01 12:00 51.02419 3.71697 25608 ft 369 kts 26°
2026-05-01 12:01 51.04760 3.73390 25233 ft 367 kts 26°
2026-05-01 12:01 51.07078 3.75068 24860 ft 365 kts 26°
2026-05-01 12:01 51.09386 3.76739 24484 ft 363 kts 26°
2026-05-01 12:01 51.11678 3.78401 24122 ft 361 kts 26°
2026-05-01 12:02 51.13966 3.80061 23758 ft 359 kts 26°
2026-05-01 12:02 51.16207 3.81688 23384 ft 358 kts 26°
2026-05-01 12:02 51.18468 3.83331 23024 ft 356 kts 26°
2026-05-01 12:02 51.20712 3.84965 22664 ft 354 kts 26°
2026-05-01 12:03 51.23018 3.86342 22286 ft 355 kts 16°
2026-05-01 12:03 51.25450 3.87003 21937 ft 354 kts
2026-05-01 12:03 51.27911 3.87007 21601 ft 352 kts 359°
2026-05-01 12:03 51.30359 3.86886 21242 ft 351 kts 359°
2026-05-01 12:04 51.32797 3.86784 20894 ft 349 kts
2026-05-01 12:04 51.35222 3.86707 20539 ft 348 kts
2026-05-01 12:04 51.37626 3.86730 20133 ft 346 kts
2026-05-01 12:04 51.39178 3.87367 19738 ft 346 kts 27°
2026-05-01 12:05 51.41130 3.89488 19379 ft 338 kts 49°
2026-05-01 12:05 51.43407 3.97084 18568 ft 324 kts 79°
2026-05-01 12:05 51.43926 4.00585 18215 ft 322 kts 80°
2026-05-01 12:06 51.44263 4.02951 17974 ft 321 kts 80°
2026-05-01 12:06 51.44759 4.06430 17634 ft 319 kts 80°
2026-05-01 12:06 51.45259 4.09890 17295 ft 318 kts 80°
2026-05-01 12:06 51.45762 4.13325 16951 ft 316 kts 80°
2026-05-01 12:07 51.46266 4.16742 16621 ft 314 kts 80°
2026-05-01 12:07 51.46762 4.20087 16284 ft 313 kts 80°
2026-05-01 12:07 51.47266 4.23487 15953 ft 311 kts 80°
2026-05-01 12:07 51.47766 4.26851 15624 ft 309 kts 80°
2026-05-01 12:08 51.48264 4.30203 15298 ft 308 kts 80°
2026-05-01 12:08 51.48757 4.33534 14964 ft 306 kts 80°
2026-05-01 12:08 51.49038 4.36898 14499 ft 304 kts 97°
2026-05-01 12:08 51.48507 4.40128 13887 ft 300 kts 117°
2026-05-01 12:09 51.47540 4.43083 13270 ft 299 kts 121°
2026-05-01 12:09 51.46521 4.45949 12655 ft 299 kts 122°
2026-05-01 12:09 51.45479 4.48838 12055 ft 298 kts 122°
2026-05-01 12:09 51.44444 4.51689 11569 ft 294 kts 122°
2026-05-01 12:10 51.43427 4.54493 11062 ft 290 kts 122°
2026-05-01 12:10 51.41431 4.60008 10185 ft 280 kts 122°
2026-05-01 12:10 51.40463 4.62692 9741 ft 276 kts 122°
2026-05-01 12:11 51.38561 4.67975 8823 ft 271 kts 122°
2026-05-01 12:11 51.37482 4.70399 8358 ft 266 kts 140°
2026-05-01 12:11 51.35933 4.71921 8023 ft 259 kts 155°
2026-05-01 12:12 51.34302 4.73153 7644 ft 261 kts 149°
2026-05-01 12:12 51.33035 4.75187 7253 ft 260 kts 123°
2026-05-01 12:12 51.32201 4.77731 6885 ft 256 kts 118°
2026-05-01 12:12 51.31446 4.80283 6527 ft 252 kts 117°
2026-05-01 12:13 51.30713 4.82811 6143 ft 250 kts 117°
2026-05-01 12:13 51.29980 4.85326 5769 ft 249 kts 117°
2026-05-01 12:13 51.29258 4.87830 5381 ft 245 kts 117°
2026-05-01 12:13 51.28549 4.90279 5013 ft 241 kts 117°
2026-05-01 12:14 51.27845 4.92698 4657 ft 238 kts 117°
2026-05-01 12:14 51.27160 4.95041 4584 ft 227 kts 117°
2026-05-01 12:14 51.26678 4.97493 4591 ft 244 kts 95°
2026-05-01 12:14 51.26933 5.00227 4290 ft 259 kts 76°
2026-05-01 12:15 51.27553 5.02952 3935 ft 262 kts 69°
2026-05-01 12:15 51.28348 5.05555 3530 ft 259 kts 72°
2026-05-01 12:15 51.28959 5.08226 3182 ft 254 kts 73°
2026-05-01 12:15 51.29551 5.10868 2812 ft 250 kts 74°
2026-05-01 12:16 51.30167 5.13433 2477 ft 245 kts 71°
2026-05-01 12:16 51.30787 5.15955 2093 ft 242 kts 72°
2026-05-01 12:16 51.31332 5.18414 2004 ft 227 kts 74°
2026-05-01 12:16 51.31840 5.20701 1984 ft 209 kts 73°
2026-05-01 12:17 51.32324 5.22788 1979 ft 192 kts 72°
2026-05-01 12:17 51.32807 5.24681 1989 ft 177 kts 62°
2026-05-01 12:17 51.33752 5.25765 1994 ft 168 kts 14°
2026-05-01 12:17 51.34856 5.26223 1985 ft 161 kts 39°
2026-05-01 12:18 51.35767 5.27319 1974 ft 174 kts 32°
2026-05-01 12:18 51.36860 5.27982 1835 ft 165 kts 36°
2026-05-01 12:18 51.37568 5.29281 1630 ft 148 kts 56°
2026-05-01 12:18 51.38431 5.30191 1471 ft 155 kts 27°
2026-05-01 12:19 51.39366 5.31087 1250 ft 155 kts 44°
2026-05-01 12:19 51.40235 5.32096 1020 ft 155 kts 34°
2026-05-01 12:19 51.41112 5.33047 828 ft 152 kts 40°
2026-05-01 12:19 51.41979 5.34044 621 ft 154 kts 38°
2026-05-01 12:20 51.42838 5.35010 429 ft 150 kts 38°
2026-05-01 12:20 51.43719 5.35986 237 ft 154 kts 38°
2026-05-01 12:20 51.44585 5.36975 75 ft 146 kts 37°
2026-05-01 12:20 51.45318 5.37792 68 ft 108 kts 34°
2026-05-01 12:21 51.45737 5.38267 75 ft 33 kts 35°
2026-05-01 12:21 51.45875 5.38422 74 ft 19 kts 35°
2026-05-01 12:21 51.45897 5.38529 68 ft 0 kts 112°
2026-05-01 12:21 51.45894 5.38538 76 ft 2 kts 112°
2026-05-01 12:22 51.45886 5.38567 72 ft 4 kts 116°
2026-05-01 12:22 51.45871 5.38612 69 ft 5 kts 118°
2026-05-01 12:22 51.45850 5.38661 67 ft 6 kts 126°
2026-05-01 12:22 51.45827 5.38710 66 ft 5 kts 127°
2026-05-01 12:23 51.45805 5.38760 70 ft 5 kts 114°
2026-05-01 12:23 51.45797 5.38828 67 ft 7 kts 101°
2026-05-01 12:23 51.45773 5.38891 67 ft 6 kts 124°
2026-05-01 12:23 51.45755 5.38931 74 ft 2 kts 125°
2026-05-01 12:24 51.45752 5.38939 69 ft 0 kts 125°